Weather in Hatillo

Puerto Rico     18°29′10″N   66°49′29″W
temp.,
°C
wind,
m/s
gust,
m/s
humid.,
%
clouds,
%
prec.,
mm/h
press.,
hPa
HPBL,
m
14 april, wed
wed1423:00+23se118499 0.0 1014146
02:00+22ssw1186100 0.0 101396
05:00+22ssw118771 0.0 1013131
08:00+24wnw1179100 0.0 1015401
11:00+27n446547 0.0 1016892
14:00+27n65681 0.0 1014818
17:00+25n547360 0.1 1013869
20:00+23nne447435 0.2 1014449
15 april, thu
thu1523:00+23nne34673 0.0 1015462
02:00+22ene23690 0.0 1013454
05:00+21ene23730 0.0 1013432
08:00+24ene44623 0.0 10161001
11:00+26ne54556 0.0 10161016
14:00+26ne65545 0.0 1014655
17:00+25ene65565 0.0 1013752
20:00+23e56655 0.0 1015423
16 april, fri
fri1623:00+21se457217 0.0 1015278
02:00+21se12734 0.0 1014123
05:00+21sse22770 0.0 1013118
08:00+24ese226510 0.0 1015273
11:00+27ne54643 0.0 1015817
14:00+26ene667669 0.1 1014642
17:00+25ene668231 1.1 1014536
20:00+24ene56880 1.3 1015280
17 april, sat
sat1723:00+23se34880 0.0 1016168
02:00+23s12851 0.0 101482
05:00+23s118414 0.0 101569
08:00+25se11736 0.0 1016234
11:00+28nne446355 0.0 1016942
14:00+28ne54686 0.2 1015669
17:00+27nne32683 1.3 1015620
20:00+25ssw01821 1.4 101748
18 april, sun
sun1823:00+24ssw33830 0.1 1017116
02:00+23se22840 0.1 1016116
05:00+23se23850 0.0 1016128
08:00+25ese35700 0.0 1018342
11:00+29ne76590 0.0 10181107
14:00+28ne1110651 0.0 1016627
17:00+27ene587439 0.9 1015488
20:00+25sse45790 1.0 1017126